2020-061AS (46312 NORAD) Tracking and Keplerian Element Data

This shows tracking and keplerian element data for the satellite.

Feedback or suggestion? Click here.




ElementValue
Catalog46312
Name2020-061AS
Epoch Orbit204
Epoch Day261.12091926
Epoch Year2020
RAAN334.0088
Inclination97.519
Eccentricity0.000127
Argument of Perigee126.2795
Mean Anonmoly233.8553
Mean Motion15.10644854
Decay Rate1.264E-05
L11 46312U 20061AS 20261.12091926 .00001264 00000-0 80280-4 0 9991
L22 46312 97.5190 334.0088 0001270 126.2795 233.8553 15.10644854 2040

Live tracking and technical data element details for 2020-061AS (NORAD 46312). 2020-061AS can be tracked NOW for your location showing map with azimuth and elevation plus other details from your city location.

Track the satellite on the map from your city or location and see movement details for azimuth, elevation, latitude, longitude, range, height, and movement on the map or in text.







IsCatalogInMostPopularTable: catalog: 46312, numindb: 3
Update: records affected: 1



GetName: 46312 2020-061AS

Hit Count: updated at: Thu, 24 Sep 2020 16:38:10 GMT